contact: severine.martini@mio.osupytheas.fr, dominique.lefevre@mio.osupytheas.fr
Project:EMSO Ligure-ouest http://www.emso-fr.org/EMSO-France
Sensor Microcat Sea-Bird SBE37 SMP,  Serial 57510 
DOI : "https://doi.org/10.17882/97948" 
Title:EMSO Ligure Ouest : Data Bathybot capteur Microcat - deploiement 2023-04-28
Datetime,Profondeur,Latitude,Longitude,Temperature,Conductivite,Pression,Salinite
time,m,degree_north,degree_east,degree_C,S/m,db,PSU 
2023-11-29T00:00:50,2420,42.8014,5.9826,13.2977,4.53876,2453.559,37.9183
2023-11-29T00:03:49,2420,42.8014,5.9826,13.2979,4.53851,2453.582,37.9156
2023-11-29T00:06:49,2420,42.8014,5.9826,13.2976,4.53880,2453.537,37.9187
2023-11-29T00:09:49,2420,42.8014,5.9826,13.2978,4.53846,2453.559,37.9153
2023-11-29T00:12:49,2420,42.8014,5.9826,13.2979,4.53869,2453.574,37.9173
2023-11-29T00:15:49,2420,42.8014,5.9826,13.2978,4.53854,2453.559,37.9160
2023-11-29T00:18:49,2420,42.8014,5.9826,13.2973,4.53838,2453.559,37.9150
2023-11-29T00:21:49,2420,42.8014,5.9826,13.2981,4.53850,2453.537,37.9154
2023-11-29T00:24:49,2420,42.8014,5.9826,13.2982,4.53837,2453.537,37.9141
2023-11-29T00:27:49,2420,42.8014,5.9826,13.2986,4.53822,2453.574,37.9122
2023-11-29T00:30:49,2420,42.8014,5.9826,13.2983,4.53832,2453.559,37.9135
2023-11-29T00:33:49,2420,42.8014,5.9826,13.2979,4.53842,2453.537,37.9148
2023-11-29T00:36:49,2420,42.8014,5.9826,13.2976,4.53851,2453.559,37.9159
2023-11-29T00:39:49,2420,42.8014,5.9826,13.2979,4.53834,2453.559,37.9141
2023-11-29T00:42:49,2420,42.8014,5.9826,13.2980,4.53837,2453.537,37.9143
2023-11-29T00:45:49,2420,42.8014,5.9826,13.2976,4.53829,2453.559,37.9139
2023-11-29T00:48:49,2420,42.8014,5.9826,13.2978,4.53841,2453.537,37.9148
2023-11-29T00:51:49,2420,42.8014,5.9826,13.2978,4.53835,2453.537,37.9143
2023-11-29T00:54:49,2420,42.8014,5.9826,13.2977,4.53832,2453.574,37.9141
2023-11-29T00:57:49,2420,42.8014,5.9826,13.2975,4.53823,2453.559,37.9134
2023-11-29T01:00:50,2420,42.8014,5.9826,13.2979,4.53811,2453.537,37.9119
2023-11-29T01:03:49,2420,42.8014,5.9826,13.2975,4.53867,2453.559,37.9176
2023-11-29T01:06:49,2420,42.8014,5.9826,13.2978,4.53845,2453.514,37.9152
2023-11-29T01:09:49,2420,42.8014,5.9826,13.2976,4.53872,2453.537,37.9179
2023-11-29T01:12:49,2420,42.8014,5.9826,13.2980,4.53837,2453.537,37.9142
2023-11-29T01:15:49,2420,42.8014,5.9826,13.2978,4.53865,2453.544,37.9171
2023-11-29T01:18:49,2420,42.8014,5.9826,13.2978,4.53867,2453.514,37.9174
2023-11-29T01:21:49,2420,42.8014,5.9826,13.2981,4.53834,2453.499,37.9139
2023-11-29T01:24:49,2420,42.8014,5.9826,13.2990,4.53861,2453.537,37.9155
2023-11-29T01:27:49,2420,42.8014,5.9826,13.2999,4.53979,2453.537,37.9258
2023-11-29T01:30:49,2420,42.8014,5.9826,13.2982,4.53859,2453.514,37.9162
2023-11-29T01:33:49,2420,42.8014,5.9826,13.3001,4.53863,2453.537,37.9146
2023-11-29T01:36:49,2420,42.8014,5.9826,13.2996,4.53853,2453.537,37.9142
2023-11-29T01:39:49,2420,42.8014,5.9826,13.2998,4.53855,2453.537,37.9142
2023-11-29T01:42:49,2420,42.8014,5.9826,13.3010,4.53845,2453.514,37.9121
2023-11-29T01:45:49,2420,42.8014,5.9826,13.3070,4.53854,2453.551,37.9070
2023-11-29T01:48:49,2420,42.8014,5.9826,13.3256,4.53875,2453.499,37.8909
2023-11-29T01:51:49,2420,42.8014,5.9826,13.3189,4.53876,2453.514,37.8975
2023-11-29T01:54:49,2420,42.8014,5.9826,13.3039,4.53878,2453.551,37.9124
2023-11-29T01:57:49,2420,42.8014,5.9826,13.3117,4.53855,2453.522,37.9026
2023-11-29T02:00:49,2420,42.8014,5.9826,13.3000,4.53875,2453.514,37.9159
2023-11-29T02:03:49,2420,42.8014,5.9826,13.3055,4.53864,2453.528,37.9094
2023-11-29T02:06:49,2420,42.8014,5.9826,13.3626,4.53844,2453.559,37.8518
2023-11-29T02:09:49,2420,42.8014,5.9826,13.3282,4.54478,2453.551,37.9451
2023-11-29T02:12:49,2420,42.8014,5.9826,13.3152,4.54200,2453.551,37.9316
2023-11-29T02:15:49,2420,42.8014,5.9826,13.3145,4.54123,2453.514,37.9250
2023-11-29T02:18:49,2420,42.8014,5.9826,13.3078,4.53956,2453.514,37.9159
2023-11-29T02:21:50,2420,42.8014,5.9826,13.3119,4.53892,2453.537,37.9059
2023-11-29T02:24:49,2420,42.8014,5.9826,13.2995,4.53892,2453.537,37.9179
2023-11-29T02:27:49,2420,42.8014,5.9826,13.2993,4.54065,2453.537,37.9345
2023-11-29T02:30:49,2420,42.8014,5.9826,13.2984,4.54055,2453.559,37.9344
2023-11-29T02:33:49,2420,42.8014,5.9826,13.2987,4.54087,2453.537,37.9371
2023-11-29T02:36:49,2420,42.8014,5.9826,13.3021,4.54035,2453.559,37.9289
2023-11-29T02:39:49,2420,42.8014,5.9826,13.3005,4.54054,2453.537,37.9322
2023-11-29T02:42:49,2420,42.8014,5.9826,13.3000,4.54079,2453.559,37.9351
2023-11-29T02:45:49,2420,42.8014,5.9826,13.2991,4.54054,2453.537,37.9336
2023-11-29T02:48:49,2420,42.8014,5.9826,13.2991,4.53808,2453.514,37.9105
2023-11-29T02:51:49,2420,42.8014,5.9826,13.3021,4.53839,2453.537,37.9104
2023-11-29T02:54:50,2420,42.8014,5.9826,13.3026,4.53987,2453.559,37.9239
2023-11-29T02:57:49,2420,42.8014,5.9826,13.3000,4.53827,2453.551,37.9113
2023-11-29T03:00:49,2420,42.8014,5.9826,13.3029,4.53894,2453.537,37.9149
2023-11-29T03:03:49,2420,42.8014,5.9826,13.2984,4.53944,2453.537,37.9239
2023-11-29T03:06:49,2420,42.8014,5.9826,13.3171,4.53887,2453.537,37.9003
2023-11-29T03:09:49,2420,42.8014,5.9826,13.3070,4.53801,2453.551,37.9021
2023-11-29T03:12:49,2420,42.8014,5.9826,13.3158,4.53881,2453.559,37.9010
2023-11-29T03:15:49,2420,42.8014,5.9826,13.3305,4.53884,2453.537,37.8870
2023-11-29T03:18:49,2420,42.8014,5.9826,13.3577,4.53830,2453.537,37.8553
2023-11-29T03:21:49,2420,42.8014,5.9826,13.3351,4.54108,2453.574,37.9036
2023-11-29T03:24:49,2420,42.8014,5.9826,13.3187,4.53986,2453.551,37.9081
2023-11-29T03:27:49,2420,42.8014,5.9826,13.3203,4.53807,2453.551,37.8896
2023-11-29T03:30:49,2420,42.8014,5.9826,13.3063,4.53856,2453.551,37.9079
2023-11-29T03:33:49,2420,42.8014,5.9826,13.3267,4.53726,2453.559,37.8758
2023-11-29T03:36:49,2420,42.8014,5.9826,13.3424,4.53716,2453.559,37.8595
2023-11-29T03:39:49,2420,42.8014,5.9826,13.3288,4.53673,2453.551,37.8687
2023-11-29T03:42:49,2420,42.8014,5.9826,13.3380,4.53675,2453.596,37.8599
2023-11-29T03:45:49,2420,42.8014,5.9826,13.3347,4.53622,2453.551,37.8581
2023-11-29T03:48:49,2420,42.8014,5.9826,13.3379,4.53571,2453.582,37.8502
2023-11-29T03:51:49,2420,42.8014,5.9826,13.3358,4.53508,2453.574,37.8464
2023-11-29T03:54:49,2420,42.8014,5.9826,13.3302,4.53271,2453.559,37.8295
2023-11-29T03:57:49,2420,42.8014,5.9826,13.3063,4.51750,2453.596,37.7096
2023-11-29T04:00:49,2420,42.8014,5.9826,13.3202,4.50851,2453.559,37.6117
2023-11-29T04:03:49,2420,42.8014,5.9826,13.3234,4.50128,2453.559,37.5406
2023-11-29T04:06:49,2420,42.8014,5.9826,13.3303,4.49968,2453.596,37.5188
2023-11-29T04:09:49,2420,42.8014,5.9826,13.3281,4.49966,2453.582,37.5208
2023-11-29T04:12:49,2420,42.8014,5.9826,13.3259,4.49952,2453.596,37.5215
2023-11-29T04:15:49,2420,42.8014,5.9826,13.3395,4.49977,2453.596,37.5108
2023-11-29T04:18:49,2420,42.8014,5.9826,13.3099,4.49818,2453.582,37.5245
2023-11-29T04:21:49,2420,42.8014,5.9826,13.3228,4.49885,2453.604,37.5183
2023-11-29T04:24:49,2420,42.8014,5.9826,13.3304,4.49749,2453.619,37.4982
2023-11-29T04:27:49,2420,42.8014,5.9826,13.3035,4.49729,2453.582,37.5223
2023-11-29T04:30:49,2420,42.8014,5.9826,13.2984,4.49763,2453.604,37.5304
2023-11-29T04:33:49,2420,42.8014,5.9826,13.3162,4.49684,2453.559,37.5058
2023-11-29T04:36:49,2420,42.8014,5.9826,13.3011,4.49610,2453.641,37.5134
2023-11-29T04:39:49,2420,42.8014,5.9826,13.3203,4.49576,2453.582,37.4916
2023-11-29T04:42:49,2420,42.8014,5.9826,13.3072,4.49552,2453.641,37.5020
2023-11-29T04:45:49,2420,42.8014,5.9826,13.3267,4.49511,2453.619,37.4794
2023-11-29T04:48:49,2420,42.8014,5.9826,13.2978,4.49497,2453.627,37.5060
2023-11-29T04:51:50,2420,42.8014,5.9826,13.3382,4.49414,2453.627,37.4592
2023-11-29T04:54:49,2420,42.8014,5.9826,13.3318,4.49413,2453.627,37.4653
2023-11-29T04:57:49,2420,42.8014,5.9826,13.3081,4.49393,2453.627,37.4863
2023-11-29T05:00:49,2420,42.8014,5.9826,13.3166,4.49333,2453.641,37.4724
2023-11-29T05:03:49,2420,42.8014,5.9826,13.3020,4.49290,2453.604,37.4825
2023-11-29T05:06:49,2420,42.8014,5.9826,13.3588,4.49233,2453.664,37.4224
2023-11-29T05:09:49,2420,42.8014,5.9826,13.3412,4.49131,2453.664,37.4297
2023-11-29T05:12:49,2420,42.8014,5.9826,13.2991,4.49083,2453.649,37.4659
2023-11-29T05:15:49,2420,42.8014,5.9826,13.3056,4.48962,2453.664,37.4482
2023-11-29T05:18:49,2420,42.8014,5.9826,13.3098,4.48898,2453.672,37.4381
2023-11-29T05:21:49,2420,42.8014,5.9826,13.3092,4.48815,2453.649,37.4309
2023-11-29T05:24:49,2420,42.8014,5.9826,13.3010,4.48789,2453.627,37.4363
2023-11-29T05:27:50,2420,42.8014,5.9826,13.3051,4.48809,2453.687,37.4342
2023-11-29T05:30:49,2420,42.8014,5.9826,13.3132,4.48674,2453.649,37.4138
2023-11-29T05:33:49,2420,42.8014,5.9826,13.3035,4.48673,2453.672,37.4230
2023-11-29T05:36:49,2420,42.8014,5.9826,13.3191,4.48625,2453.672,37.4035
2023-11-29T05:39:49,2420,42.8014,5.9826,13.3176,4.48600,2453.649,37.4026
2023-11-29T05:42:49,2420,42.8014,5.9826,13.3154,4.48576,2453.695,37.4024
2023-11-29T05:45:49,2420,42.8014,5.9826,13.3181,4.48589,2453.732,37.4011
2023-11-29T05:48:49,2420,42.8014,5.9826,13.3180,4.48514,2453.717,37.3941
2023-11-29T05:51:49,2420,42.8014,5.9826,13.3181,4.48516,2453.695,37.3942
2023-11-29T05:54:49,2420,42.8014,5.9826,13.3182,4.48486,2453.709,37.3913
2023-11-29T05:57:49,2420,42.8014,5.9826,13.3221,4.48508,2453.732,37.3896
2023-11-29T06:00:49,2420,42.8014,5.9826,13.3203,4.48505,2453.747,37.3910
2023-11-29T06:03:49,2420,42.8014,5.9826,13.3201,4.48502,2453.672,37.3909
2023-11-29T06:06:49,2420,42.8014,5.9826,13.3061,4.48466,2453.695,37.4010
2023-11-29T06:09:49,2420,42.8014,5.9826,13.3072,4.48513,2453.717,37.4043
2023-11-29T06:12:49,2420,42.8014,5.9826,13.3239,4.48539,2453.717,37.3907
2023-11-29T06:15:49,2420,42.8014,5.9826,13.3177,4.48487,2453.717,37.3919
2023-11-29T06:18:49,2420,42.8014,5.9826,13.3160,4.48478,2453.754,37.3926
2023-11-29T06:21:49,2420,42.8014,5.9826,13.3098,4.48525,2453.754,37.4030
2023-11-29T06:24:49,2420,42.8014,5.9826,13.3250,4.48619,2453.717,37.3972
2023-11-29T06:27:49,2420,42.8014,5.9826,13.3369,4.48507,2453.762,37.3753
2023-11-29T06:30:49,2420,42.8014,5.9826,13.3126,4.48482,2453.754,37.3963
2023-11-29T06:33:50,2420,42.8014,5.9826,13.3013,4.48478,2453.740,37.4068
2023-11-29T06:36:49,2420,42.8014,5.9826,13.3086,4.48446,2453.800,37.3967
2023-11-29T06:39:49,2420,42.8014,5.9826,13.2991,4.48423,2453.777,37.4037
2023-11-29T06:42:49,2420,42.8014,5.9826,13.3026,4.48350,2453.740,37.3935
2023-11-29T06:45:49,2420,42.8014,5.9826,13.3053,4.48340,2453.740,37.3900
2023-11-29T06:48:49,2420,42.8014,5.9826,13.3026,4.48331,2453.785,37.3917
2023-11-29T06:51:49,2420,42.8014,5.9826,13.2985,4.48300,2453.762,37.3928
2023-11-29T06:54:49,2420,42.8014,5.9826,13.2986,4.48314,2453.762,37.3940
2023-11-29T06:57:49,2420,42.8014,5.9826,13.2998,4.48257,2453.740,37.3874
2023-11-29T07:00:49,2420,42.8014,5.9826,13.3050,4.48217,2453.785,37.3787
2023-11-29T07:03:49,2420,42.8014,5.9826,13.3067,4.47750,2453.785,37.3332
2023-11-29T07:06:49,2420,42.8014,5.9826,13.3078,4.60027,2453.762,38.4882
2023-11-29T07:09:49,2420,42.8014,5.9826,13.3005,4.59994,2453.785,38.4923
2023-11-29T07:12:49,2420,42.8014,5.9826,13.2999,4.59937,2453.785,38.4875
2023-11-29T07:15:49,2420,42.8014,5.9826,13.3011,4.59982,2453.748,38.4906
2023-11-29T07:18:49,2420,42.8014,5.9826,13.2996,4.59941,2453.785,38.4882
2023-11-29T07:21:49,2420,42.8014,5.9826,13.3017,4.59934,2453.785,38.4855
2023-11-29T07:24:49,2420,42.8014,5.9826,13.2998,4.59942,2453.822,38.4881
2023-11-29T07:27:50,2420,42.8014,5.9826,13.2983,4.59960,2453.800,38.4914
2023-11-29T07:30:49,2420,42.8014,5.9826,13.2983,4.59983,2453.785,38.4935
2023-11-29T07:33:49,2420,42.8014,5.9826,13.2979,4.59957,2453.785,38.4914
2023-11-29T07:36:49,2420,42.8014,5.9826,13.2982,4.59928,2453.793,38.4885
2023-11-29T07:39:49,2420,42.8014,5.9826,13.2985,4.59922,2453.785,38.4875
2023-11-29T07:42:49,2420,42.8014,5.9826,13.2982,4.59934,2453.822,38.4890
2023-11-29T07:45:49,2420,42.8014,5.9826,13.2991,4.59963,2453.748,38.4909
2023-11-29T07:48:49,2420,42.8014,5.9826,13.2981,4.59914,2453.800,38.4872
2023-11-29T07:51:49,2420,42.8014,5.9826,13.2982,4.59920,2453.807,38.4877
2023-11-29T07:54:49,2420,42.8014,5.9826,13.2980,4.59909,2453.785,38.4868
2023-11-29T07:57:49,2420,42.8014,5.9826,13.2985,4.59917,2453.785,38.4871
2023-11-29T08:00:49,2420,42.8014,5.9826,13.2982,4.59924,2453.807,38.4880
2023-11-29T08:03:49,2420,42.8014,5.9826,13.2982,4.59920,2453.807,38.4877
2023-11-29T08:06:49,2420,42.8014,5.9826,13.2979,4.59926,2453.807,38.4886
2023-11-29T08:09:49,2420,42.8014,5.9826,13.2978,4.59944,2453.807,38.4903
2023-11-29T08:12:49,2420,42.8014,5.9826,13.2982,4.59933,2453.830,38.4889
2023-11-29T08:15:49,2420,42.8014,5.9826,13.2981,4.59920,2453.822,38.4877
2023-11-29T08:18:49,2420,42.8014,5.9826,13.2978,4.59936,2453.785,38.4896
2023-11-29T08:21:49,2420,42.8014,5.9826,13.2978,4.59916,2453.785,38.4877
2023-11-29T08:24:49,2420,42.8014,5.9826,13.2979,4.59937,2453.785,38.4895
2023-11-29T08:27:49,2420,42.8014,5.9826,13.2978,4.59931,2453.830,38.4891
2023-11-29T08:30:49,2420,42.8014,5.9826,13.2976,4.59934,2453.807,38.4895
2023-11-29T08:33:49,2420,42.8014,5.9826,13.2978,4.59928,2453.830,38.4887
2023-11-29T08:36:49,2420,42.8014,5.9826,13.2986,4.59932,2453.822,38.4883
2023-11-29T08:39:49,2420,42.8014,5.9826,13.2977,4.59943,2453.807,38.4904
2023-11-29T08:42:49,2420,42.8014,5.9826,13.2982,4.59937,2453.830,38.4892
2023-11-29T08:45:49,2420,42.8014,5.9826,13.2978,4.59935,2453.807,38.4895
2023-11-29T08:48:49,2420,42.8014,5.9826,13.2988,4.59919,2453.807,38.4869
2023-11-29T08:51:50,2420,42.8014,5.9826,13.2984,4.59914,2453.830,38.4868
2023-11-29T08:54:49,2420,42.8014,5.9826,13.2982,4.59905,2453.807,38.4862
2023-11-29T08:57:49,2420,42.8014,5.9826,13.2973,4.59926,2453.815,38.4892
2023-11-29T09:00:49,2420,42.8014,5.9826,13.2983,4.59926,2453.807,38.4881
2023-11-29T09:03:49,2420,42.8014,5.9826,13.2989,4.59923,2453.830,38.4872
2023-11-29T09:06:49,2420,42.8014,5.9826,13.2979,4.59913,2453.785,38.4872
2023-11-29T09:09:49,2420,42.8014,5.9826,13.2978,4.59915,2453.807,38.4875
2023-11-29T09:12:49,2420,42.8014,5.9826,13.2979,4.59920,2453.807,38.4879
2023-11-29T09:15:49,2420,42.8014,5.9826,13.2979,4.59930,2453.807,38.4889
2023-11-29T09:18:49,2420,42.8014,5.9826,13.2977,4.59914,2453.807,38.4876
2023-11-29T09:21:49,2420,42.8014,5.9826,13.2980,4.59922,2453.830,38.4880
2023-11-29T09:24:50,2420,42.8014,5.9826,13.2982,4.59936,2453.785,38.4892
2023-11-29T09:27:49,2420,42.8014,5.9826,13.2979,4.59923,2453.785,38.4883
2023-11-29T09:30:49,2420,42.8014,5.9826,13.2984,4.59932,2453.807,38.4886
2023-11-29T09:33:49,2420,42.8014,5.9826,13.2984,4.59937,2453.785,38.4891
2023-11-29T09:36:49,2420,42.8014,5.9826,13.2979,4.59936,2453.815,38.4895
2023-11-29T09:39:49,2420,42.8014,5.9826,13.2985,4.59916,2453.815,38.4870
2023-11-29T09:42:49,2420,42.8014,5.9826,13.2987,4.59913,2453.785,38.4865
2023-11-29T09:45:49,2420,42.8014,5.9826,13.2991,4.59929,2453.807,38.4876
2023-11-29T09:48:49,2420,42.8014,5.9826,13.2983,4.59920,2453.830,38.4876
2023-11-29T09:51:49,2420,42.8014,5.9826,13.2986,4.59929,2453.785,38.4881
2023-11-29T09:54:49,2420,42.8014,5.9826,13.2978,4.59919,2453.785,38.4879
2023-11-29T09:57:49,2420,42.8014,5.9826,13.2980,4.59922,2453.807,38.4880
2023-11-29T10:00:49,2420,42.8014,5.9826,13.2982,4.59911,2453.785,38.4868
2023-11-29T10:03:49,2420,42.8014,5.9826,13.2978,4.59917,2453.785,38.4878
2023-11-29T10:06:49,2420,42.8014,5.9826,13.2975,4.59908,2453.785,38.4872
2023-11-29T10:09:49,2420,42.8014,5.9826,13.2975,4.59908,2453.770,38.4872
2023-11-29T10:12:49,2420,42.8014,5.9826,13.2975,4.59909,2453.785,38.4874
2023-11-29T10:15:49,2420,42.8014,5.9826,13.2975,4.59913,2453.770,38.4877
2023-11-29T10:18:49,2420,42.8014,5.9826,13.2978,4.59903,2453.785,38.4865
2023-11-29T10:21:49,2420,42.8014,5.9826,13.2982,4.59915,2453.807,38.4872
2023-11-29T10:24:49,2420,42.8014,5.9826,13.2988,4.59915,2453.785,38.4866
2023-11-29T10:27:49,2420,42.8014,5.9826,13.2978,4.59905,2453.762,38.4867
2023-11-29T10:30:49,2420,42.8014,5.9826,13.2977,4.59906,2453.762,38.4868
2023-11-29T10:33:49,2420,42.8014,5.9826,13.2975,4.59905,2453.785,38.4870
2023-11-29T10:36:49,2420,42.8014,5.9826,13.2975,4.59916,2453.777,38.4880
2023-11-29T10:39:49,2420,42.8014,5.9826,13.2976,4.59905,2453.762,38.4868
2023-11-29T10:42:49,2420,42.8014,5.9826,13.2974,4.59897,2453.762,38.4863
2023-11-29T10:45:49,2420,42.8014,5.9826,13.2973,4.59903,2453.762,38.4869
2023-11-29T10:48:49,2420,42.8014,5.9826,13.2975,4.59897,2453.762,38.4862
2023-11-29T10:51:49,2420,42.8014,5.9826,13.2975,4.59897,2453.762,38.4861
2023-11-29T10:54:49,2420,42.8014,5.9826,13.2977,4.59897,2453.762,38.4861
2023-11-29T10:57:49,2420,42.8014,5.9826,13.2972,4.59897,2453.754,38.4865
2023-11-29T11:00:49,2420,42.8014,5.9826,13.2975,4.59897,2453.762,38.4862
2023-11-29T11:03:49,2420,42.8014,5.9826,13.2974,4.59896,2453.748,38.4862
2023-11-29T11:06:49,2420,42.8014,5.9826,13.2973,4.59896,2453.740,38.4863
2023-11-29T11:09:49,2420,42.8014,5.9826,13.2970,4.59897,2453.754,38.4866
2023-11-29T11:12:49,2420,42.8014,5.9826,13.2971,4.59897,2453.740,38.4866
2023-11-29T11:15:49,2420,42.8014,5.9826,13.2976,4.59907,2453.740,38.4870
2023-11-29T11:18:49,2420,42.8014,5.9826,13.2973,4.59898,2453.762,38.4865
2023-11-29T11:21:49,2420,42.8014,5.9826,13.2971,4.59899,2453.717,38.4868
2023-11-29T11:24:49,2420,42.8014,5.9826,13.2977,4.59904,2453.762,38.4867
2023-11-29T11:27:49,2420,42.8014,5.9826,13.2974,4.59910,2453.717,38.4875
2023-11-29T11:30:49,2420,42.8014,5.9826,13.2973,4.59900,2453.717,38.4868
2023-11-29T11:33:49,2420,42.8014,5.9826,13.2974,4.59898,2453.717,38.4864
2023-11-29T11:36:49,2420,42.8014,5.9826,13.2973,4.59896,2453.740,38.4863
2023-11-29T11:39:49,2420,42.8014,5.9826,13.2975,4.59901,2453.717,38.4866
2023-11-29T11:42:49,2420,42.8014,5.9826,13.2979,4.59905,2453.732,38.4866
2023-11-29T11:45:49,2420,42.8014,5.9826,13.2973,4.59900,2453.695,38.4866
2023-11-29T11:48:49,2420,42.8014,5.9826,13.2977,4.59898,2453.695,38.4861
2023-11-29T11:51:49,2420,42.8014,5.9826,13.2974,4.59897,2453.657,38.4863
2023-11-29T11:54:49,2420,42.8014,5.9826,13.2974,4.59903,2453.717,38.4868
2023-11-29T11:57:50,2420,42.8014,5.9826,13.2978,4.59903,2453.717,38.4865
2023-11-29T12:00:49,2420,42.8014,5.9826,13.2984,4.59905,2453.702,38.4861
2023-11-29T12:03:49,2420,42.8014,5.9826,13.2973,4.59901,2453.717,38.4868
2023-11-29T12:06:49,2420,42.8014,5.9826,13.2976,4.59901,2453.695,38.4865
2023-11-29T12:09:49,2420,42.8014,5.9826,13.2975,4.59906,2453.695,38.4870
2023-11-29T12:12:49,2420,42.8014,5.9826,13.2981,4.59901,2453.717,38.4860
2023-11-29T12:15:49,2420,42.8014,5.9826,13.2973,4.59896,2453.695,38.4863
2023-11-29T12:18:49,2420,42.8014,5.9826,13.2974,4.59896,2453.695,38.4862
2023-11-29T12:21:50,2420,42.8014,5.9826,13.2974,4.59897,2453.717,38.4864
2023-11-29T12:24:49,2420,42.8014,5.9826,13.2973,4.59895,2453.695,38.4863
2023-11-29T12:27:49,2420,42.8014,5.9826,13.2975,4.59897,2453.695,38.4862
2023-11-29T12:30:49,2420,42.8014,5.9826,13.2977,4.59898,2453.672,38.4862
2023-11-29T12:33:49,2420,42.8014,5.9826,13.2974,4.59897,2453.695,38.4864
2023-11-29T12:36:49,2420,42.8014,5.9826,13.2974,4.59896,2453.680,38.4862
2023-11-29T12:39:49,2420,42.8014,5.9826,13.2974,4.59895,2453.672,38.4862
2023-11-29T12:42:49,2420,42.8014,5.9826,13.2974,4.59894,2453.687,38.4861
2023-11-29T12:45:49,2420,42.8014,5.9826,13.2973,4.59894,2453.695,38.4861
2023-11-29T12:48:49,2420,42.8014,5.9826,13.2969,4.59895,2453.672,38.4867
2023-11-29T12:51:49,2420,42.8014,5.9826,13.2977,4.59894,2453.672,38.4858
2023-11-29T12:54:49,2420,42.8014,5.9826,13.2976,4.59894,2453.695,38.4859
2023-11-29T12:57:49,2420,42.8014,5.9826,13.2972,4.59894,2453.657,38.4863
2023-11-29T13:00:49,2420,42.8014,5.9826,13.2973,4.59894,2453.635,38.4862
2023-11-29T13:03:49,2420,42.8014,5.9826,13.2969,4.59894,2453.672,38.4866
2023-11-29T13:06:49,2420,42.8014,5.9826,13.2975,4.59894,2453.680,38.4860
2023-11-29T13:09:49,2420,42.8014,5.9826,13.2978,4.59897,2453.672,38.4859
2023-11-29T13:12:49,2420,42.8014,5.9826,13.2978,4.59897,2453.672,38.4860
2023-11-29T13:15:49,2420,42.8014,5.9826,13.2976,4.59897,2453.657,38.4862
2023-11-29T13:18:49,2420,42.8014,5.9826,13.2977,4.59903,2453.627,38.4866
2023-11-29T13:21:49,2420,42.8014,5.9826,13.2971,4.59896,2453.649,38.4865
2023-11-29T13:24:49,2420,42.8014,5.9826,13.2971,4.59895,2453.635,38.4865
2023-11-29T13:27:49,2420,42.8014,5.9826,13.2972,4.59898,2453.649,38.4867
2023-11-29T13:30:50,2420,42.8014,5.9826,13.2975,4.59898,2453.672,38.4863
2023-11-29T13:33:49,2420,42.8014,5.9826,13.2977,4.59897,2453.649,38.4861
2023-11-29T13:36:49,2420,42.8014,5.9826,13.2974,4.59896,2453.627,38.4862
2023-11-29T13:39:49,2420,42.8014,5.9826,13.2976,4.59896,2453.612,38.4860
2023-11-29T13:42:49,2420,42.8014,5.9826,13.2976,4.59897,2453.627,38.4861
2023-11-29T13:45:49,2420,42.8014,5.9826,13.2975,4.59897,2453.627,38.4863
2023-11-29T13:48:49,2420,42.8014,5.9826,13.2970,4.59899,2453.627,38.4870
2023-11-29T13:51:49,2420,42.8014,5.9826,13.2974,4.59895,2453.672,38.4862
2023-11-29T13:54:49,2420,42.8014,5.9826,13.2975,4.59894,2453.664,38.4860
2023-11-29T13:57:49,2420,42.8014,5.9826,13.2975,4.59895,2453.627,38.4861
2023-11-29T14:00:49,2420,42.8014,5.9826,13.2973,4.59895,2453.664,38.4862
2023-11-29T14:03:49,2420,42.8014,5.9826,13.2973,4.59897,2453.612,38.4864
2023-11-29T14:06:49,2420,42.8014,5.9826,13.2976,4.59901,2453.649,38.4865
2023-11-29T14:09:49,2420,42.8014,5.9826,13.2973,4.59897,2453.649,38.4864
2023-11-29T14:12:49,2420,42.8014,5.9826,13.2973,4.59899,2453.627,38.4866
2023-11-29T14:15:49,2420,42.8014,5.9826,13.2973,4.59900,2453.590,38.4867
2023-11-29T14:18:49,2420,42.8014,5.9826,13.2973,4.59900,2453.627,38.4867
2023-11-29T14:21:49,2420,42.8014,5.9826,13.2972,4.59897,2453.604,38.4865
2023-11-29T14:24:49,2420,42.8014,5.9826,13.2973,4.59900,2453.649,38.4868
2023-11-29T14:27:49,2420,42.8014,5.9826,13.2973,4.59897,2453.627,38.4865
2023-11-29T14:30:49,2420,42.8014,5.9826,13.2977,4.59896,2453.649,38.4860
2023-11-29T14:33:50,2420,42.8014,5.9826,13.2975,4.59900,2453.604,38.4866
2023-11-29T14:36:49,2420,42.8014,5.9826,13.2975,4.59899,2453.590,38.4865
2023-11-29T14:39:49,2420,42.8014,5.9826,13.2972,4.59899,2453.649,38.4867
2023-11-29T14:42:49,2420,42.8014,5.9826,13.2975,4.59899,2453.604,38.4865
2023-11-29T14:45:49,2420,42.8014,5.9826,13.2977,4.59897,2453.627,38.4861
2023-11-29T14:48:49,2420,42.8014,5.9826,13.2973,4.59902,2453.649,38.4869
2023-11-29T14:51:49,2420,42.8014,5.9826,13.2973,4.59900,2453.627,38.4867
2023-11-29T14:54:49,2420,42.8014,5.9826,13.2973,4.59902,2453.604,38.4869
2023-11-29T14:57:49,2420,42.8014,5.9826,13.2970,4.59902,2453.627,38.4872
2023-11-29T15:00:49,2420,42.8014,5.9826,13.2975,4.59901,2453.627,38.4867
2023-11-29T15:03:49,2420,42.8014,5.9826,13.2970,4.59899,2453.604,38.4870
2023-11-29T15:06:49,2420,42.8014,5.9826,13.2978,4.59905,2453.627,38.4867
2023-11-29T15:09:49,2420,42.8014,5.9826,13.2973,4.59900,2453.590,38.4867
2023-11-29T15:12:49,2420,42.8014,5.9826,13.2977,4.59903,2453.590,38.4866
2023-11-29T15:15:49,2420,42.8014,5.9826,13.2975,4.59906,2453.604,38.4872
2023-11-29T15:18:49,2420,42.8014,5.9826,13.2973,4.59900,2453.612,38.4867
2023-11-29T15:21:50,2420,42.8014,5.9826,13.2978,4.59903,2453.582,38.4865
2023-11-29T15:24:49,2420,42.8014,5.9826,13.2970,4.59902,2453.627,38.4872
2023-11-29T15:27:49,2420,42.8014,5.9826,13.2974,4.59899,2453.604,38.4865
2023-11-29T15:30:49,2420,42.8014,5.9826,13.2974,4.59899,2453.590,38.4865
2023-11-29T15:33:49,2420,42.8014,5.9826,13.2978,4.59902,2453.582,38.4864
2023-11-29T15:36:49,2420,42.8014,5.9826,13.2975,4.59900,2453.582,38.4866
2023-11-29T15:39:49,2420,42.8014,5.9826,13.2978,4.59900,2453.604,38.4862
2023-11-29T15:42:49,2420,42.8014,5.9826,13.2972,4.59903,2453.604,38.4871
2023-11-29T15:45:49,2420,42.8014,5.9826,13.2973,4.59901,2453.627,38.4868
2023-11-29T15:48:49,2420,42.8014,5.9826,13.2975,4.59902,2453.641,38.4867
2023-11-29T15:51:49,2420,42.8014,5.9826,13.2977,4.59899,2453.604,38.4863
2023-11-29T15:54:49,2420,42.8014,5.9826,13.2975,4.59899,2453.627,38.4864
2023-11-29T15:57:49,2420,42.8014,5.9826,13.2974,4.59899,2453.627,38.4865
2023-11-29T16:00:49,2420,42.8014,5.9826,13.2970,4.59902,2453.627,38.4872
2023-11-29T16:03:49,2420,42.8014,5.9826,13.2972,4.59900,2453.627,38.4869